{"data":{"norad_id":63600,"epoch":"2026-05-25T03:15:30.244608Z","epoch_age_seconds":60532,"freshness":"FRESH","line1":"1 63600U 25078B   26145.13576672  .00000015  00000+0  82565-4 0  9997","line2":"2 63600  99.6913 152.6821 0001160  80.6483 279.4787 13.57244004 54403","mean_motion":13.57244004,"eccentricity":0.000116,"inclination_deg":99.6913,"raan_deg":152.6821,"arg_perigee_deg":80.6483,"mean_anomaly_deg":279.4787,"bstar":8.2565e-5,"rev_number":5440,"period_min":106.09735580014,"perigee_km":1044.8637727455,"apogee_km":1046.5861087157,"semimajor_km":7423.8619407306,"source":"CELESTRAK","updated_at":"2026-05-25T13:38:03.845043Z"}}